Retour au catalogue

STARLINK-31486

ActifCommunicationsVLEO
NORAD 59181·PAYLOAD·🇺🇸 United States

Lancé Mar 10, 2024 depuis Cape Canaveral Space Force Station

Loading…

Prochains Passages (prochaines 24 heures)

TLE

FraisSource: CelesTrak SupGP

Époque: Sep 15, 2026, 02:49 UTC

1 59181C 24045D   26258.11784722  .00018918  00000+0  68509-3 0  2589
2 59181  43.0026  99.5099 0001355 275.1825 295.9517 15.27575260    15

Suivez STARLINK-31486 en temps réel avec AllMySat

Download on the App Store